Orbital Elements at Epoch 2459200.5 (2020-Dec-17.0) TDB
Reference: JPL 16 (heliocentric ecliptic J2000)
Element | Value | Uncertainty (1-sigma) | Units |
e | .1350255517422167 | 6.5432e-08 | |
a | 2.296510459813043 | 9.4926e-09 | au |
q | 1.986422867895015 | 1.4826e-07 | au |
i | 6.827129733970057 | 8.0096e-06 | deg |
node | 24.24876616175364 | 3.1757e-05 | deg |
peri | 323.8158001674826 | 4.0631e-05 | deg |
M | 150.2393857411364 | 2.3992e-05 | deg |
tp | 2458670.003690333854 (2019-Jul-05.50369033) | 8.3608e-05 | TDB |
period | 1271.162488702332 3.48 | 7.8815e-06 2.158e-08 | d yr |
n | .2832053362174858 | 1.7559e-09 | deg/d |
Q | 2.606598051731071 | 1.0774e-08 | au |
|
| | Orbit Determination Parameters
Additional Information
|